Location: Bletchingley
(51.2333°N, 0.1000°W)
Time: 03:36:50
(UTC+00:00)

CZ-4C R/B - Pass Details

Date: 18 September 2020
Orbit: 627 x 1375 km, 63.4° (Epoch: 19 October)

Event Time Altitude Azimuth Distance (km) Brightness Sun altitude
Exits shadow 23:01:59 19° 49° (NE) 2,046 4.3 -36.2°
Drops below altitude 10° 23:03:41 10° 47° (NE) 2,676 5.0 -36.3°
Sets 23:06:31 0° 45° (NE) 3,751 5.9 -36.4°
